TimeEDT,TemperatureF,Dew PointF,Humidity,Sea Level PressureIn,VisibilityMPH,Wind Direction,Wind SpeedMPH,Gust SpeedMPH,PrecipitationIn,Events,Conditions,WindDirDegrees,DateUTC
12:58 AM,77.5,66.2,68,30.21,10.0,East,10.4,-,N/A,,Scattered Clouds,90,2013-10-30 04:58:00
1:58 AM,77.9,66.4,68,30.19,10.0,East,8.1,-,N/A,,Mostly Cloudy,100,2013-10-30 05:58:00
2:43 AM,77.0,68.0,74,30.18,10.0,East,8.1,-,N/A,,Light Drizzle,90,2013-10-30 06:43:00
2:58 AM,74.8,68.0,79,30.19,6.0,East,10.4,27.6,0.00,Rain,Light Rain,90,2013-10-30 06:58:00
3:07 AM,75.2,68.0,78,30.17,10.0,East,9.2,-,N/A,,Overcast,90,2013-10-30 07:07:00
3:58 AM,76.1,67.5,74,30.17,10.0,East,10.4,-,0.01,,Mostly Cloudy,90,2013-10-30 07:58:00
4:58 AM,75.6,67.5,76,30.17,10.0,East,5.8,-,N/A,,Clear,80,2013-10-30 08:58:00
5:58 AM,76.1,66.9,73,30.19,10.0,East,5.8,-,N/A,,Overcast,80,2013-10-30 09:58:00
6:58 AM,76.1,66.0,71,30.21,10.0,ENE,6.9,-,N/A,,Partly Cloudy,60,2013-10-30 10:58:00
7:58 AM,75.9,66.6,73,30.21,10.0,ENE,4.6,-,N/A,,Clear,70,2013-10-30 11:58:00
8:58 AM,77.4,66.4,69,30.22,10.0,ENE,5.8,-,N/A,,Clear,60,2013-10-30 12:58:00
9:58 AM,81.1,65.8,60,30.24,10.0,ENE,8.1,-,N/A,,Mostly Cloudy,70,2013-10-30 13:58:00
10:58 AM,81.1,64.8,57,30.25,10.0,ENE,8.1,-,N/A,,Scattered Clouds,60,2013-10-30 14:58:00
11:58 AM,81.1,67.5,63,30.25,10.0,ENE,8.1,-,N/A,,Partly Cloudy,70,2013-10-30 15:58:00
12:58 PM,82.9,65.8,56,30.22,10.0,ENE,10.4,-,N/A,,Clear,60,2013-10-30 16:58:00
1:58 PM,83.3,66.4,57,30.19,10.0,ENE,11.5,-,N/A,,Clear,70,2013-10-30 17:58:00
2:58 PM,81.1,66.0,60,30.19,10.0,ENE,9.2,-,N/A,,Scattered Clouds,60,2013-10-30 18:58:00
3:58 PM,82.0,66.4,59,30.16,10.0,ENE,10.4,-,N/A,,Partly Cloudy,60,2013-10-30 19:58:00
4:58 PM,81.3,65.3,58,30.14,10.0,ENE,11.5,-,N/A,,Clear,70,2013-10-30 20:58:00
5:58 PM,79.9,64.9,60,30.16,10.0,ENE,9.2,-,N/A,,Clear,70,2013-10-30 21:58:00
6:58 PM,78.3,65.8,65,30.17,10.0,ENE,6.9,-,N/A,,Clear,70,2013-10-30 22:58:00
7:58 PM,78.1,66.7,68,30.17,10.0,East,9.2,-,N/A,,Partly Cloudy,80,2013-10-30 23:58:00
8:06 PM,78.8,66.2,65,30.16,10.0,East,8.1,-,N/A,,Light Drizzle,80,2013-10-31 00:06:00
8:15 PM,78.8,68.0,69,30.16,10.0,East,10.4,-,N/A,,Mostly Cloudy,80,2013-10-31 00:15:00
8:58 PM,78.1,67.3,69,30.17,10.0,East,11.5,-,0.00,,Clear,80,2013-10-31 00:58:00
9:58 PM,77.5,67.3,71,30.17,10.0,East,10.4,-,N/A,,Overcast,100,2013-10-31 01:58:00
10:58 PM,78.4,66.9,68,30.17,10.0,East,15.0,-,N/A,,Partly Cloudy,100,2013-10-31 02:58:00
11:58 PM,77.9,67.6,71,30.16,10.0,ESE,12.7,-,N/A,,Mostly Cloudy,110,2013-10-31 03:58:00